[[{"header":{"parameterUnit":"m.s-1","parameterCategory":1,"la1":30.2991,"la2":30.254,"lo1":-89.0895,"lo2":-89.0444,"dy":0.0017,"dx":0.0017,"nx":28,"ny":28,"refTime":"2025-06-04T21:00:00:Z","depth":0,"parameterNumber":2,"parameterNumberName":"U-component_of_WINDS"},"data":[0,0,0,0,0,0,0,0,0,0,0,0,0,0,0,0,0,0,0,0,0,0,0,0,0,0,0,0,0,0,0,0,0,0,0,0,0,0,0,0,0,0,0,0,0,0,0,0,0,0,0,0,0,0,0,0,0,0,1.6784,1.6784,0,1.6798,1.6798,1.6798,1.6737,1.6735,1.6733,1.6731,1.6745,1.6747,1.6749,0,0,0,0,0,0,0,0,0,0,0,0,0,1.6703,1.6705,1.6784,1.6784,1.6784,1.6798,1.6798,1.6798,1.6737,1.6735,1.6733,1.673,1.6744,1.6747,1.6749,0,0,0,0,0,0,0,0,0,0,0,0,0,1.673,1.6705,1.6784,1.6755,1.6753,1.6798,1.6798,1.6798,1.6737,1.6735,1.6732,1.6729,1.6744,1.6747,1.675,1.6822,0,0,1.6759,1.676,0,0,0,0,0,0,0,0,1.6728,1.6733,1.6759,1.6757,1.6755,1.6763,1.6774,1.6806,1.6738,1.6743,1.6731,1.6728,1.6753,1.6755,1.6764,1.6823,1.6823,1.6759,1.6761,1.6762,1.6763,0,0,0,0,0,0,0,1.6726,1.6732,1.6789,1.676,1.6757,1.6741,1.6742,1.678,1.6763,1.6742,1.6738,1.6741,1.6751,1.6761,1.6764,1.6824,1.6759,1.6762,1.6764,1.6765,1.6942,1.6945,0,0,0,0,0,0,1.6728,1.6731,1.6789,1.6789,1.6734,1.6745,1.6746,1.6763,1.6762,1.676,1.6743,1.6738,1.6757,1.676,1.6764,1.6847,1.6762,1.6765,1.6767,1.6939,1.6943,1.6946,0,0,0,0,0,0,1.6727,1.6734,1.6788,1.6759,1.6765,1.6749,1.6769,1.6764,1.6774,1.6763,1.6759,1.6756,1.6755,1.6759,1.6808,1.6847,1.6767,1.6769,1.6936,1.694,1.6944,1.7017,0,0,0,0,0,0,1.6725,1.6734,1.6762,1.676,1.6766,1.6832,1.6771,1.6767,1.6779,1.6773,1.6774,1.6772,1.6753,1.6804,1.6811,1.685,1.6772,1.6932,1.6938,1.6943,1.7011,1.7023,1.7033,0,0,0,0,0,1.6722,1.6781,1.6763,1.6771,1.6801,1.6835,1.6838,1.6816,1.6783,1.681,1.6803,1.6772,1.6842,1.6809,1.6817,1.6857,1.693,1.6936,1.6943,1.7005,1.702,1.7033,0,0,0,0,0,0,1.6788,1.6781,1.676,1.6821,1.6829,1.6824,1.6858,1.6833,1.685,1.6843,1.6815,1.6816,1.6869,1.6868,1.6832,1.6927,1.688,1.6889,1.6925,1.6939,1.6951,1.6949,1.6774,0,0,0,0,0,1.6809,1.6838,1.683,1.6884,1.689,1.6874,1.6887,1.687,1.6877,1.688,1.6876,1.6884,1.6908,1.6924,1.6945,1.7011,1.701,1.7043,1.7054,1.7063,1.707,1.7104,1.7118,1.6967,1.6967,1.6967,0,0,1.6854,1.6854,1.6873,1.6898,1.6902,1.6931,1.6877,1.6911,1.6932,1.6885,1.693,1.6928,1.6935,1.6992,1.7017,1.6993,1.7112,1.7072,1.7079,1.7081,1.7112,1.7126,1.7139,1.6972,1.6971,1.697,0,0,1.695,1.6953,1.6998,1.7003,1.701,1.6999,1.701,1.701,1.7006,1.7052,1.7016,1.7042,1.7084,1.709,1.7098,1.7198,1.7169,1.7206,1.7264,1.7297,1.7309,1.7319,1.7353,1.7366,1.7213,1.7213,1.7213,0,1.7004,1.7048,1.7024,1.706,1.7071,1.7031,1.7076,1.7082,1.7096,1.7104,1.7078,1.7129,1.7131,1.7188,1.7213,1.7222,1.7232,1.7204,1.7309,1.7319,1.7329,1.736,1.7373,1.7217,1.7217,1.7217,1.7216,0,1.7113,1.7144,1.7179,1.7193,1.7209,1.725,1.7232,1.725,1.7232,1.7224,1.727,1.7271,1.7291,1.7304,1.7287,1.7359,1.7344,1.7314,1.7266,1.7348,1.7377,1.7389,1.7224,1.7222,1.7221,1.722,0,0,1.7249,1.725,1.7263,1.7269,1.7274,1.7297,1.7336,1.7356,1.7372,1.7383,1.7414,1.7451,1.7423,1.7433,1.7416,1.7445,1.7522,1.7411,1.7411,1.743,1.76,1.7621,1.7636,1.7504,1.7506,1.7508,1.7599,0,1.7341,1.7407,1.7387,1.7453,1.748,1.7443,1.7476,1.7483,1.7477,1.7499,1.7492,1.7518,1.748,1.7486,1.7514,1.7507,1.7555,1.75,1.7531,1.7532,1.7528,1.7651,1.7674,1.7759,1.7611,1.7613,1.7614,0,1.7457,1.7473,1.7541,1.7541,1.7552,1.7583,1.7599,1.7622,1.7629,1.7622,1.7634,1.761,1.7648,1.7602,1.7652,1.7615,1.7627,1.7626,1.7629,1.7629,1.7577,1.7653,1.7786,1.7798,1.7632,1.7631,1.7629,0,1.7547,1.7585,1.7631,1.7637,1.7639,1.7661,1.7663,1.7667,1.768,1.7696,1.7704,1.7723,1.7733,1.7749,1.7731,1.7699,1.7784,1.7737,1.7779,1.7779,1.7796,1.7795,1.7931,1.7808,1.7808,1.7808,1.7807,0,1.765,1.7693,1.7671,1.7699,1.7746,1.7723,1.777,1.7768,1.7772,1.7798,1.7768,1.7794,1.777,1.7794,1.7781,1.7824,1.7829,1.7824,1.782,1.7825,1.7826,1.7831,1.7824,1.7811,1.781,1.7809,1.7809,0,1.7757,1.7744,1.7791,1.7789,1.779,1.7824,1.7822,1.7848,1.784,1.7874,1.7881,1.7868,1.7894,1.7879,1.7906,1.7897,1.7953,1.7941,1.795,1.7946,1.7988,1.7984,1.8131,1.8149,1.8016,1.8018,1.8019,0,1.7823,1.7855,1.7857,1.7872,1.7876,1.7902,1.7915,1.7895,1.791,1.7921,1.7945,1.7968,1.7985,1.8029,1.8022,1.8042,1.803,1.808,1.8032,1.8037,1.8028,1.8025,1.8028,1.8089,1.809,1.8092,1.8093,0,1.794,1.7933,1.7953,1.7972,1.7989,1.8003,1.8014,1.8028,1.8008,1.8027,1.8053,1.8066,1.8094,1.8117,1.8134,1.8136,1.8111,1.8108,1.8118,1.8123,1.8126,1.8123,1.7974,1.8104,1.8103,1.8102,1.8101,1.8101,1.8027,1.8053,1.8059,1.8083,1.8089,1.81,1.8124,1.8119,1.8141,1.8161,1.8148,1.8179,1.8185,1.8206,1.8211,1.8234,1.8214,1.8229,1.8233,1.8236,1.8241,1.8125,1.8238,1.8237,1.8237,1.8237,1.8236,0,1.8141,1.8143,1.8166,1.8182,1.8201,1.8177,1.8188,1.8205,1.8232,1.8241,1.8258,1.8288,1.8311,1.8307,1.8327,1.8347,1.8336,1.8352,1.835,1.835,1.8259,1.8247,1.8361,1.8361,1.8361,1.8361,1.8361,1.8361,1.8203,1.8245,1.8238,1.8284,1.8286,1.8315,1.8324,1.8334,1.834,1.8375,1.8393,1.8391,1.8394,1.8414,1.8434,1.8432,1.844,1.8461,1.8454,1.8369,1.8357,1.8345,1.8333,1.8463,1.8463,1.8543,1.8543,1.8544]},{"header":{"parameterUnit":"m.s-1","parameterCategory":1,"la1":30.2991,"la2":30.254,"lo1":-89.0895,"lo2":-89.0444,"dy":0.0017,"dx":0.0017,"nx":28,"ny":28,"refTime":"2025-06-04T21:00:00:Z","depth":0,"parameterNumber":3,"parameterNumberName":"V-component_of_WINDS"},"data":[0,0,0,0,0,0,0,0,0,0,0,0,0,0,0,0,0,0,0,0,0,0,0,0,0,0,0,0,0,0,0,0,0,0,0,0,0,0,0,0,0,0,0,0,0,0,0,0,0,0,0,0,0,0,0,0,0,0,0.5752,0.5753,0,0.5871,0.5872,0.5873,0.5874,0.5872,0.5871,0.5869,0.5993,0.5998,0.6002,0,0,0,0,0,0,0,0,0,0,0,0,0,0.5525,0.5529,0.5751,0.5753,0.5754,0.5871,0.5872,0.5874,0.5874,0.5872,0.587,0.5868,0.5992,0.5997,0.6003,0,0,0,0,0,0,0,0,0,0,0,0,0,0.5632,0.5531,0.5751,0.5768,0.5771,0.587,0.5872,0.5874,0.5874,0.5872,0.587,0.5867,0.599,0.5997,0.6004,0.6094,0,0,0.6025,0.6028,0,0,0,0,0,0,0,0,0.5626,0.564,0.5764,0.5767,0.5771,0.5855,0.5838,0.5948,0.5875,0.5835,0.5869,0.5866,0.5949,0.5959,0.5987,0.61,0.6105,0.6026,0.603,0.6033,0.6035,0,0,0,0,0,0,0,0.5619,0.5635,0.5799,0.5766,0.577,0.5771,0.5783,0.5859,0.5904,0.5838,0.5839,0.5853,0.595,0.598,0.599,0.6107,0.6026,0.6032,0.6037,0.6039,0.6301,0.6303,0,0,0,0,0,0,0.5607,0.5629,0.5795,0.5802,0.5691,0.5777,0.5791,0.583,0.5903,0.5912,0.5855,0.5852,0.5969,0.5982,0.5994,0.6106,0.6033,0.604,0.6044,0.6298,0.6301,0.6304,0,0,0,0,0,0,0.5603,0.5622,0.579,0.5716,0.5737,0.5783,0.5827,0.5834,0.5864,0.5915,0.5923,0.5877,0.5968,0.5984,0.6069,0.611,0.6043,0.605,0.6295,0.6299,0.6303,0.6329,0,0,0,0,0,0,0.5596,0.562,0.5655,0.5717,0.5741,0.5863,0.583,0.5838,0.5876,0.5874,0.5938,0.5946,0.5967,0.6059,0.6076,0.6119,0.6055,0.6291,0.6297,0.6301,0.6325,0.6334,0.6341,0,0,0,0,0,0.5588,0.5658,0.5657,0.5677,0.5785,0.5865,0.5879,0.5901,0.5879,0.5914,0.5947,0.5944,0.6102,0.6067,0.6087,0.6132,0.6289,0.6295,0.6301,0.6321,0.6332,0.6341,0,0,0,0,0,0,0.5601,0.5667,0.5666,0.5758,0.5806,0.5865,0.5911,0.5912,0.5968,0.5964,0.5989,0.6003,0.6088,0.6119,0.6079,0.6224,0.6193,0.6203,0.6201,0.6212,0.622,0.6212,0.6061,0,0,0,0,0,0.5615,0.5674,0.5727,0.5804,0.5828,0.5865,0.59,0.5913,0.5964,0.5985,0.6024,0.6074,0.6135,0.6175,0.6234,0.6328,0.6343,0.6369,0.6377,0.6383,0.6393,0.6446,0.6458,0.6324,0.6324,0.6324,0,0,0.5644,0.5686,0.5722,0.5807,0.5846,0.5907,0.5882,0.5948,0.5994,0.5995,0.6078,0.6108,0.6166,0.6256,0.6298,0.6284,0.6433,0.6391,0.6396,0.6402,0.6453,0.6466,0.6477,0.6328,0.6327,0.6326,0,0,0.5728,0.5765,0.5833,0.5872,0.5931,0.5955,0.5971,0.603,0.605,0.6133,0.6136,0.619,0.6295,0.6336,0.637,0.6469,0.6469,0.6487,0.653,0.6582,0.6592,0.6602,0.6638,0.6651,0.6496,0.6496,0.6496,0,0.5757,0.5848,0.5868,0.5934,0.5972,0.5974,0.6044,0.6081,0.6156,0.6182,0.6165,0.6296,0.6334,0.6435,0.6459,0.6486,0.6506,0.6481,0.6589,0.6599,0.6608,0.6643,0.6656,0.6498,0.6498,0.6497,0.6497,0,0.5881,0.5945,0.5992,0.6064,0.6107,0.6174,0.6205,0.6246,0.6254,0.628,0.6365,0.6411,0.648,0.6504,0.6513,0.6606,0.6596,0.6583,0.6553,0.6622,0.6656,0.6669,0.6501,0.65,0.6499,0.6499,0,0,0.5979,0.606,0.6078,0.611,0.6174,0.6224,0.6291,0.6358,0.6393,0.6444,0.6502,0.6589,0.6578,0.6617,0.6631,0.6675,0.6752,0.6658,0.6659,0.6675,0.6858,0.6869,0.6884,0.6751,0.6753,0.6756,0.6854,0,0.6072,0.6191,0.621,0.6315,0.6375,0.6377,0.6436,0.6482,0.6508,0.6562,0.659,0.6653,0.6632,0.6656,0.67,0.6733,0.6789,0.6726,0.6806,0.6809,0.6794,0.6901,0.6912,0.7003,0.6867,0.6869,0.6871,0,0.6196,0.6249,0.636,0.6416,0.6442,0.6494,0.6557,0.6608,0.666,0.6676,0.6719,0.6727,0.6797,0.6762,0.686,0.6817,0.685,0.6871,0.6875,0.6885,0.6846,0.6916,0.7033,0.7047,0.6891,0.689,0.6888,0,0.6258,0.6358,0.6437,0.6465,0.6532,0.6569,0.6598,0.6648,0.6687,0.6741,0.6766,0.6828,0.6863,0.691,0.6935,0.6907,0.7032,0.6998,0.7048,0.7047,0.7076,0.7074,0.7202,0.7094,0.7094,0.7094,0.7093,0,0.636,0.6428,0.6466,0.6515,0.6591,0.6613,0.6688,0.6717,0.6761,0.6816,0.6821,0.6873,0.6901,0.6957,0.6977,0.7056,0.7071,0.7086,0.7091,0.7087,0.7085,0.7111,0.7106,0.7097,0.7097,0.7096,0.7095,0,0.6444,0.6471,0.6558,0.6614,0.663,0.6684,0.6732,0.678,0.6804,0.6874,0.6892,0.6931,0.6997,0.7025,0.7107,0.712,0.7211,0.721,0.7193,0.7195,0.7244,0.724,0.7394,0.7416,0.7292,0.7293,0.7294,0,0.6508,0.656,0.6621,0.6658,0.6689,0.6748,0.6787,0.681,0.6851,0.6914,0.6954,0.702,0.7074,0.718,0.7216,0.7279,0.7281,0.733,0.729,0.7285,0.7283,0.7281,0.7287,0.7338,0.7339,0.734,0.7341,0,0.662,0.6631,0.6687,0.6748,0.6794,0.6843,0.6891,0.6921,0.6951,0.6997,0.7064,0.7106,0.7188,0.7255,0.7319,0.735,0.7352,0.7353,0.7368,0.7366,0.7355,0.7363,0.7215,0.735,0.7349,0.7349,0.7348,0.7348,0.6697,0.6744,0.6794,0.6856,0.6894,0.6939,0.6987,0.7017,0.7073,0.7142,0.7152,0.7224,0.7275,0.7361,0.7395,0.7452,0.744,0.7461,0.7467,0.7473,0.7477,0.7344,0.7464,0.7463,0.7463,0.7463,0.7463,0,0.6811,0.6843,0.6899,0.6966,0.7015,0.701,0.7063,0.7105,0.7168,0.7215,0.7267,0.7345,0.7409,0.7449,0.7514,0.7552,0.7554,0.7568,0.7567,0.7574,0.7483,0.7464,0.7565,0.7565,0.7565,0.7565,0.7565,0.7565,0.6876,0.6955,0.6972,0.707,0.7102,0.7172,0.7203,0.7244,0.7282,0.7368,0.7421,0.7446,0.7491,0.7558,0.7617,0.7627,0.7651,0.7666,0.7676,0.7591,0.758,0.757,0.7553,0.7671,0.7671,0.7763,0.7764,0.7764]}]]